Tracking 32412 objects as of 6-Dec-2025
HD Live streaming from Space Station
objects crossing your sky now

STARLINK-2427

Track STARLINK-2427 now!
10-day predictions
STARLINK-2427 is classified as:


NORAD ID: 47837
Int'l Code: 2021-018BC
Perigee: 553.3 km
Apogee: 555.4 km
Inclination: 53.1 °
Period: 95.6 minutes
Semi major axis: 6925 km
RCS: Unknown
Launch date: March 11, 2021
Source: United States (US)
Launch site: AIR FORCE EASTERN TEST RANGE (AFETR)
Your satellite tracking list
Your tracking list is empty




NASA's NSSDC Master Catalog

Two Line Element Set (TLE):
1 47837U 21018BC  25339.27995030  .00000950  00000-0  82665-4 0  9993
2 47837  53.0555 295.4384 0001543  80.2463 279.8700 15.06390310262657
Source of the keplerian elements: AFSPC